Content
SEND FEEDBACK

Daily
Averages
Monthly
Summary
United States of America

BOSTON, MASSACHUSETTS


Home > North America > United States > Massachusetts
Elevation: 1 meter     Latitude: 42 22N     Longitude: 071 02W

WEATHER
 
SELECT A DAY
Number of Records: 202,493;   Date Range: 1/1/95 - 7/23/14
 
SHARE

PRINT THIS DATA

[ ← Previous Day ]
WEATHER ALMANAC - 12 MARCH, 2013
[ Next Day → ]
[ °F ]   °C
Weather ElementAverageHighLow
Temperature8.3 °C11.7 °C (2:54 pm)4 °C (1:25 am)
Dewpoint7.4 °C11 °C (9:14 pm)3 °C (1:25 am)
Humidity94 %100 % (2:52 am)82 % (4:46 pm)
Barometer1014.2 hPa1021.7 hPa (1:25 am)1007.1 hPa (8:47 pm)
Wind Speed18.7 km/h33.3 km/h (7:54 pm)
Wind Gust53.8 km/h (8:26 pm)
Weather ElementAverage
Visibility13.4 km
Wind DirectionSSE (168.1 °)

Weather ElementTotal
Precipitation13.97 mm
Heating Degree Days10.5 (Base 18.3)
Averaged from 43 records on 12 March, 2013
WEATHER CONDITIONS BREAKOUT
WIND DIRECTION BREAKOUT
WEATHER BY HOUR - 12 MARCH, 2013
[ °F ]   °C
Local TimeTemperatureDewpointHumidityBarometerVisibilityWind DirectionWind SpeedGust SpeedPrecipitationEventsConditions
1:25 AM4 °C3 °C93 %1021.7 hPa16.1 kmSouth (170°)11.1 km/hMostly Cloudy
1:54 AM4.4 °C3.3 °C93 %1021.3 hPa16.1 kmSSE (160°)14.8 km/hScattered Clouds
2:36 AM4 °C3 °C93 %1020.7 hPa16.1 kmSouth (170°)9.3 km/hScattered Clouds
2:52 AM4 °C4 °C100 %1020.3 hPa16.1 kmSouth (170°)11.1 km/hMostly Cloudy
2:54 AM4.4 °C3.9 °C97 %1020.3 hPa16.1 kmSouth (170°)11.1 km/hMostly Cloudy
3:54 AM5 °C3.9 °C93 %1019 hPa16.1 kmSSE (150°)13 km/hMostly Cloudy
4:01 AM5 °C4 °C93 %1019 hPa16.1 kmSSE (150°)13 km/hClear
4:19 AM5 °C4 °C93 %1019 hPa16.1 kmSSE (160°)13 km/hPartly Cloudy
4:42 AM6 °C5 °C93 %1019 hPa16.1 kmSouth (170°)9.3 km/hMostly Cloudy
4:54 AM5.6 °C5 °C96 %1018.6 hPa16.1 kmSSE (160°)7.4 km/hOvercast
5:54 AM5.6 °C5 °C96 %1018.6 hPa16.1 kmSE (140°)9.3 km/hOvercast
6:54 AM6.1 °C5.6 °C97 %1018.6 hPa14.5 kmSSE (160°)9.3 km/hOvercast
7:20 AM6 °C5 °C93 %1018.3 hPa12.9 kmSSE (150°)11.1 km/hOvercast
7:54 AM6.1 °C6.1 °C100 %1017.9 hPa12.9 kmSSE (160°)11.1 km/hOvercast
8:28 AM7 °C7 °C100 %1017.9 hPa12.9 kmSSE (160°)14.8 km/hOvercast
8:54 AM7.2 °C6.7 °C97 %1017.9 hPa14.5 kmSSE (160°)13 km/hOvercast
9:06 AM7 °C7 °C100 %1017.9 hPa14.5 kmSSE (160°)11.1 km/hOvercast
9:54 AM8.9 °C7.8 °C93 %1017.9 hPa16.1 kmSouth (180°)20.4 km/hOvercast
10:54 AM8.3 °C7.8 °C97 %1017.3 hPa12.9 kmSouth (170°)14.8 km/hOvercast
11:33 AM8 °C8 °C100 %1016.9 hPa14.5 kmSouth (170°)14.8 km/hOvercast
11:54 AM8.9 °C7.8 °C93 %1016.3 hPa14.5 kmSouth (170°)16.7 km/hOvercast
12:19 PM9 °C8 °C93 %1015.9 hPa16.1 kmSSE (160°)14.8 km/hOvercast
12:54 PM10 °C8.3 °C89 %1015.6 hPa16.1 kmSSE (160°)18.5 km/hOvercast
1:01 PM10 °C8 °C87 %1015.2 hPa16.1 kmSSE (160°)18.5 km/hOvercast
1:54 PM10.6 °C8.3 °C86 %1014.2 hPa16.1 kmSouth (170°)18.5 km/hOvercast
2:54 PM11.7 °C8.9 °C83 %1013.5 hPa16.1 kmSouth (180°)22.2 km/hOvercast
3:54 PM11.1 °C8.9 °C86 %1012.2 hPa16.1 kmSouth (170°)25.9 km/hOvercast
4:46 PM11 °C8 °C82 %1011.5 hPa11.3 kmSSE (160°)27.8 km/h0 mmRainLight Rain
4:54 PM10 °C8.3 °C89 %1011.5 hPa9.7 kmSSE (160°)25.9 km/h0 mmRainLight Rain
5:54 PM10 °C8.9 °C93 %1010.5 hPa11.3 kmSSE (160°)29.6 km/h0.25 mmRainLight Rain
6:13 PM10 °C9 °C94 %1009.8 hPa11.3 kmSSE (160°)29.6 km/h0 mmRainLight Rain
6:54 PM10 °C8.9 °C93 %1009.1 hPa9.7 kmSSE (160°)27.8 km/h0.76 mmRainRain
7:07 PM10 °C9 °C94 %1009.1 hPa8 kmSSE (160°)24.1 km/h0.25 mmRainRain
7:54 PM11.1 °C10 °C93 %1008.5 hPa6.4 kmSouth (170°)33.3 km/h2.79 mmRainRain
8:26 PM11 °C10 °C94 %1007.5 hPa6.4 kmSSE (160°)33.3 km/h53.8 km/h2.29 mmRainLight Rain
8:47 PM10 °C9 °C94 %1007.1 hPa6.4 kmSouth (170°)33.3 km/h2.54 mmRainLight Rain
8:54 PM10.6 °C10 °C96 %1007.5 hPa6.4 kmSouth (170°)33.3 km/h2.54 mmRainLight Rain
9:14 PM11 °C11 °C100 %1007.5 hPa6.4 kmSouth (190°)25.9 km/h0.51 mmRainLight Rain
9:36 PM11 °C11 °C100 %1007.5 hPa8 kmSouth (190°)20.4 km/h1.02 mmRainLight Rain
9:54 PM11.1 °C10.6 °C97 %1007.5 hPa14.5 kmSouth (190°)22.2 km/h1.02 mmRainLight Rain
10:54 PM10.6 °C10 °C96 %1007.5 hPa16.1 kmSSW (200°)25.9 km/h0 mmLight Drizzle
11:16 PM11 °C10 °C94 %1007.5 hPa16.1 kmSSW (210°)18.5 km/h33.3 km/h0 mmLight Drizzle
11:54 PM10 °C10 °C100 %1007.1 hPa16.1 kmSSW (210°)14.8 km/h0 mmLight Drizzle
Hourly data recorded from KBOS, located 0 kilometers away from Boston, Massachusetts







STORIES FROM OUR PARTNERS